When you browse on this site, cookies collect data to enhance your experience and personalize the content and advertising you see.
Visit our Privacy Policy to learn more. By continuing to use the site, you agree to this use of cookies and data.
  • In Österreich
  • Länderverzeichnis
  • Für 7 Tage
  • Wassertemperatur
  • Wetterkarte
  • News
  • Widgets
  • user-avatar
    Anmelden

    Stündliche Wetter Zasluchne

    Heute, 28 Januar, Dienstag

    Zeit Temperatur Niederschläge Wind Luftdruck Luftfeuchtigkeit
    00:00 -1°C° 0 mm 2 m/S 733 mmHg 88%
    01:00 -1°C° 0 mm 2 m/S 733 mmHg 87%
    02:00 -1°C° 0 mm 2 m/S 733 mmHg 86%
    03:00 -1°C° 0 mm 2 m/S 732 mmHg 85%
    04:00 +1°C° 0 mm 1 m/S 732 mmHg 84%
    05:00 +1°C° 0 mm 1 m/S 732 mmHg 83%
    06:00 +1°C° 0 mm 1 m/S 732 mmHg 85%
    07:00 +1°C° 0 mm 1 m/S 732 mmHg 87%
    08:00 +1°C° 0 mm 1 m/S 732 mmHg 88%
    09:00 +1°C° 0 mm 2 m/S 731 mmHg 87%
    10:00 +1°C° 0 mm 3 m/S 731 mmHg 85%
    11:00 +3°C° 0 mm 3 m/S 731 mmHg 84%
    12:00 +3°C° 0 mm 3 m/S 730 mmHg 83%
    13:00 +4°C° 0 mm 3 m/S 730 mmHg 81%
    14:00 +4°C° 0 mm 4 m/S 729 mmHg 80%
    15:00 +3°C° 0 mm 4 m/S 729 mmHg 82%
    16:00 +1°C° 0 mm 4 m/S 728 mmHg 84%
    17:00 +1°C° 0 mm 3 m/S 728 mmHg 87%
    18:00 0°C° 0 mm 4 m/S 727 mmHg 87%
    19:00 0°C° 0 mm 4 m/S 727 mmHg 88%
    20:00 -1°C° 0 mm 4 m/S 727 mmHg 89%
    21:00 -1°C° 0 mm 4 m/S 726 mmHg 89%
    22:00 -1°C° 0 mm 4 m/S 726 mmHg 90%
    23:00 -1°C° 0 mm 4 m/S 725 mmHg 90%

    Morgen, 29 Januar, Mittwoch

    Zeit Temperatur Niederschläge Wind Luftdruck Luftfeuchtigkeit
    00:00 -1°C° 0 mm 4 m/S 725 mmHg 90%
    01:00 0°C° 0 mm 4 m/S 724 mmHg 90%
    02:00 0°C° 0 mm 4 m/S 724 mmHg 91%
    03:00 -1°C° 0 mm 5 m/S 722 mmHg 92%
    04:00 -1°C° 0 mm 5 m/S 721 mmHg 93%
    05:00 -1°C° 0 mm 5 m/S 720 mmHg 94%
    06:00 -1°C° 0.1 mm 5 m/S 720 mmHg 93%
    07:00 -1°C° 0.1 mm 5 m/S 720 mmHg 93%
    08:00 -1°C° 0.1 mm 6 m/S 719 mmHg 92%
    09:00 -1°C° 0.7 mm 6 m/S 719 mmHg 93%
    10:00 -2°C° 0.7 mm 7 m/S 719 mmHg 94%
    11:00 -2°C° 0.7 mm 8 m/S 719 mmHg 95%
    12:00 -3°C° 1.1 mm 9 m/S 720 mmHg 93%
    13:00 -3°C° 1.1 mm 9 m/S 720 mmHg 91%
    14:00 -3°C° 1.1 mm 10 m/S 721 mmHg 89%
    15:00 -3°C° 0.2 mm 9 m/S 721 mmHg 86%
    16:00 -2°C° 0.2 mm 8 m/S 721 mmHg 82%
    17:00 -2°C° 0.2 mm 7 m/S 721 mmHg 79%
    18:00 -3°C° 0 mm 7 m/S 722 mmHg 84%
    19:00 -3°C° 0 mm 7 m/S 722 mmHg 89%
    20:00 -3°C° 0 mm 7 m/S 722 mmHg 94%
    21:00 -3°C° 0.2 mm 6 m/S 722 mmHg 94%
    22:00 -3°C° 0.2 mm 6 m/S 722 mmHg 94%
    23:00 -3°C° 0.2 mm 6 m/S 722 mmHg 94%

    übermorgen, 30 Januar, Donnerstag

    Zeit Temperatur Niederschläge Wind Luftdruck Luftfeuchtigkeit
    00:00 -3°C° 0.1 mm 6 m/S 722 mmHg 92%
    01:00 -3°C° 0.1 mm 7 m/S 722 mmHg 90%
    02:00 -3°C° 0.1 mm 7 m/S 722 mmHg 88%
    03:00 -4°C° 0.3 mm 8 m/S 722 mmHg 91%
    04:00 -4°C° 0.3 mm 9 m/S 722 mmHg 93%
    05:00 -4°C° 0.3 mm 10 m/S 722 mmHg 96%
    06:00 -4°C° 0.9 mm 10 m/S 722 mmHg 96%
    07:00 -4°C° 0.9 mm 11 m/S 723 mmHg 96%
    08:00 -5°C° 0.9 mm 12 m/S 723 mmHg 96%
    09:00 -5°C° 0.9 mm 12 m/S 724 mmHg 96%
    10:00 -5°C° 0.9 mm 12 m/S 724 mmHg 96%
    11:00 -3°C° 0.9 mm 12 m/S 724 mmHg 96%
    12:00 -3°C° 0.7 mm 12 m/S 725 mmHg 96%
    13:00 -3°C° 0.7 mm 12 m/S 725 mmHg 96%
    14:00 -3°C° 0.7 mm 12 m/S 726 mmHg 96%
    15:00 -3°C° 0.2 mm 12 m/S 726 mmHg 95%
    16:00 -3°C° 0.2 mm 12 m/S 727 mmHg 95%
    17:00 -3°C° 0.2 mm 11 m/S 728 mmHg 94%
    18:00 -3°C° 0.1 mm 11 m/S 728 mmHg 94%
    19:00 -3°C° 0.1 mm 10 m/S 729 mmHg 94%
    20:00 -4°C° 0.1 mm 10 m/S 730 mmHg 94%
    21:00 -4°C° 0 mm 9 m/S 730 mmHg 91%
    22:00 -4°C° 0 mm 9 m/S 730 mmHg 89%
    23:00 -4°C° 0 mm 8 m/S 730 mmHg 87%

    31 Januar, Freitag

    Zeit Temperatur Niederschläge Wind Luftdruck Luftfeuchtigkeit
    00:00 -4°C° 0 mm 7 m/S 730 mmHg 87%
    01:00 -4°C° 0 mm 7 m/S 731 mmHg 88%
    02:00 -5°C° 0 mm 6 m/S 731 mmHg 88%
    03:00 -5°C° 0 mm 5 m/S 730 mmHg 86%
    04:00 -5°C° 0 mm 5 m/S 730 mmHg 85%
    05:00 -4°C° 0 mm 4 m/S 730 mmHg 83%
    06:00 -4°C° 0 mm 4 m/S 730 mmHg 83%
    07:00 -3°C° 0 mm 4 m/S 729 mmHg 83%
    08:00 -3°C° 0 mm 4 m/S 729 mmHg 83%
    09:00 -2°C° 0 mm 5 m/S 729 mmHg 82%
    10:00 -1°C° 0 mm 5 m/S 729 mmHg 82%
    11:00 -1°C° 0 mm 5 m/S 728 mmHg 81%
    12:00 0°C° 0.2 mm 5 m/S 728 mmHg 84%
    13:00 0°C° 0.2 mm 5 m/S 727 mmHg 86%
    14:00 0°C° 0.2 mm 5 m/S 726 mmHg 89%
    15:00 0°C° 0.2 mm 5 m/S 726 mmHg 92%
    16:00 -1°C° 0.2 mm 5 m/S 726 mmHg 94%
    17:00 -2°C° 0.2 mm 6 m/S 725 mmHg 97%
    18:00 -1°C° 0.4 mm 5 m/S 725 mmHg 97%
    19:00 0°C° 0.4 mm 5 m/S 725 mmHg 97%
    20:00 0°C° 0.4 mm 5 m/S 725 mmHg 97%
    21:00 +1°C° 0.6 mm 5 m/S 725 mmHg 96%
    22:00 +1°C° 0.6 mm 6 m/S 725 mmHg 96%
    23:00 +1°C° 0.6 mm 6 m/S 725 mmHg 96%

    1 Februar, Samstag

    Zeit Temperatur Niederschläge Wind Luftdruck Luftfeuchtigkeit
    00:00 +1°C° 0.4 mm 6 m/S 725 mmHg 95%
    01:00 +1°C° 0.4 mm 6 m/S 725 mmHg 94%
    02:00 +1°C° 0.4 mm 6 m/S 726 mmHg 93%
    03:00 +1°C° 0 mm 5 m/S 726 mmHg 92%
    04:00 0°C° 0 mm 5 m/S 727 mmHg 92%
    05:00 0°C° 0 mm 5 m/S 727 mmHg 91%
    06:00 -1°C° 0 mm 5 m/S 727 mmHg 92%
    07:00 -1°C° 0 mm 4 m/S 728 mmHg 93%
    08:00 -1°C° 0 mm 4 m/S 728 mmHg 94%
    09:00 +1°C° 0 mm 3 m/S 729 mmHg 95%
    10:00 +2°C° 0 mm 3 m/S 729 mmHg 95%
    11:00 +2°C° 0 mm 3 m/S 729 mmHg 95%
    12:00 +3°C° 0 mm 3 m/S 729 mmHg 95%
    13:00 +4°C° 0 mm 3 m/S 729 mmHg 94%
    14:00 +4°C° 0 mm 3 m/S 729 mmHg 93%
    15:00 +4°C° 0.1 mm 3 m/S 729 mmHg 93%
    16:00 +4°C° 0.1 mm 3 m/S 729 mmHg 93%
    17:00 +3°C° 0.1 mm 3 m/S 729 mmHg 93%
    18:00 +4°C° 0.1 mm 3 m/S 729 mmHg 92%
    19:00 +4°C° 0.1 mm 4 m/S 729 mmHg 91%
    20:00 +4°C° 0.1 mm 4 m/S 729 mmHg 91%
    21:00 +4°C° 0.3 mm 4 m/S 728 mmHg 92%
    22:00 +4°C° 0.3 mm 4 m/S 728 mmHg 93%
    23:00 +4°C° 0.3 mm 4 m/S 728 mmHg 94%

    2 Februar, Sonntag

    Zeit Temperatur Niederschläge Wind Luftdruck Luftfeuchtigkeit
    00:00 +4°C° 0.1 mm 4 m/S 728 mmHg 94%
    01:00 +4°C° 0.1 mm 4 m/S 728 mmHg 94%
    02:00 +5°C° 0.1 mm 4 m/S 728 mmHg 93%
    03:00 +5°C° 0.3 mm 5 m/S 728 mmHg 93%
    04:00 +5°C° 0.3 mm 5 m/S 728 mmHg 93%
    05:00 +4°C° 0.3 mm 6 m/S 728 mmHg 93%
    06:00 +4°C° 0.2 mm 7 m/S 728 mmHg 90%
    07:00 +4°C° 0.2 mm 7 m/S 728 mmHg 86%
    08:00 +2°C° 0.2 mm 8 m/S 729 mmHg 82%
    09:00 +2°C° 0 mm 8 m/S 729 mmHg 79%
    10:00 +4°C° 0 mm 8 m/S 730 mmHg 75%
    11:00 +4°C° 0 mm 8 m/S 731 mmHg 72%
    12:00 +4°C° 0 mm 8 m/S 730 mmHg 70%
    13:00 +4°C° 0 mm 8 m/S 730 mmHg 67%
    14:00 +4°C° 0 mm 8 m/S 730 mmHg 64%
    15:00 +4°C° 0 mm 6 m/S 730 mmHg 68%
    16:00 +5°C° 0 mm 5 m/S 730 mmHg 71%
    17:00 +4°C° 0 mm 4 m/S 729 mmHg 74%
    18:00 +4°C° 0.1 mm 4 m/S 729 mmHg 76%
    19:00 +4°C° 0.1 mm 4 m/S 728 mmHg 79%
    20:00 +3°C° 0.1 mm 5 m/S 727 mmHg 81%
    21:00 +5°C° 0.5 mm 5 m/S 726 mmHg 84%
    22:00 +4°C° 0.5 mm 6 m/S 725 mmHg 86%
    23:00 +4°C° 0.5 mm 7 m/S 724 mmHg 89%
    Mehr zeigen